[[{"header":{"parameterUnit":"m.s-1","parameterCategory":2,"la1":30.2991,"la2":30.254,"lo1":-89.0895,"lo2":-89.0444,"dy":0.0017,"dx":0.0017,"nx":28,"ny":28,"refTime":"2024-04-28T03:00:00:Z","depth":"0","parameterNumber":2,"parameterNumberName":"U-component_of_CURRENTS"},"data":[0,0,0,0,0,0,0,0,0,0,0,0,0,0,0,0,0,0,0,0,0,0,0,0,0,0,0,0,0,0,0,0,0,0,0,0,0,0,0,0,0,0,0,0,0,0,0,0,0,0,0,0,0,0,0,0,0,0,-0.3213,-0.3214,0,-0.3258,-0.3258,-0.3258,-0.3205,-0.3203,-0.3202,-0.32,-0.303,-0.3026,-0.3023,0,0,0,0,0,0,0,0,0,0,0,0,0,-0.3025,-0.3028,-0.3213,-0.3214,-0.3216,-0.3258,-0.3258,-0.3258,-0.3205,-0.3203,-0.3201,-0.32,-0.3031,-0.3027,-0.3023,0,0,0,0,0,0,0,0,0,0,0,0,0,-0.3086,-0.303,-0.3213,-0.3198,-0.3198,-0.3258,-0.3258,-0.3258,-0.3205,-0.3203,-0.3201,-0.3199,-0.3032,-0.3027,-0.3022,-0.3037,0,0,-0.3008,-0.3006,0,0,0,0,0,0,0,0,-0.3083,-0.3093,-0.3199,-0.32,-0.3199,-0.3228,-0.3129,-0.3175,-0.3206,-0.3196,-0.32,-0.3198,-0.3081,-0.3073,-0.3081,-0.3029,-0.3021,-0.3007,-0.3005,-0.3002,-0.3001,0,0,0,0,0,0,0,-0.3079,-0.309,-0.3225,-0.3201,-0.3201,-0.317,-0.3176,-0.3138,-0.3142,-0.3197,-0.3195,-0.321,-0.3079,-0.3086,-0.3076,-0.3019,-0.3008,-0.3003,-0.3,-0.2998,-0.2972,-0.2974,0,0,0,0,0,0,-0.3092,-0.3087,-0.3224,-0.3227,-0.3141,-0.3176,-0.3183,-0.3217,-0.3147,-0.3138,-0.3211,-0.3207,-0.3095,-0.3081,-0.3069,-0.3058,-0.3002,-0.2998,-0.2995,-0.297,-0.2973,-0.2975,0,0,0,0,0,0,-0.3088,-0.3104,-0.3222,-0.3161,-0.3174,-0.3183,-0.322,-0.3219,-0.3218,-0.3162,-0.3146,-0.3211,-0.3093,-0.3076,-0.3051,-0.3051,-0.2996,-0.2991,-0.2967,-0.2971,-0.2974,-0.305,0,0,0,0,0,0,-0.3082,-0.3103,-0.3122,-0.3163,-0.3179,-0.3255,-0.3223,-0.3221,-0.3233,-0.3228,-0.3157,-0.314,-0.309,-0.3059,-0.3047,-0.3044,-0.2988,-0.2965,-0.2969,-0.2973,-0.3045,-0.3055,-0.3065,0,0,0,0,0,-0.3076,-0.3114,-0.3124,-0.3139,-0.3209,-0.3257,-0.3261,-0.3254,-0.3236,-0.3242,-0.3209,-0.3141,-0.3075,-0.3058,-0.3042,-0.3037,-0.2963,-0.2968,-0.2972,-0.304,-0.3053,-0.3064,0,0,0,0,0,0,-0.3034,-0.3114,-0.3125,-0.3183,-0.3217,-0.3249,-0.3262,-0.3261,-0.3246,-0.3232,-0.3168,-0.315,-0.3128,-0.3089,-0.3071,-0.3049,-0.3008,-0.301,-0.3065,-0.3077,-0.3086,-0.3076,-0.2984,0,0,0,0,0,-0.3042,-0.3094,-0.3152,-0.3196,-0.3219,-0.3242,-0.3257,-0.326,-0.3261,-0.3252,-0.321,-0.3171,-0.3142,-0.3114,-0.3083,-0.3069,-0.3038,-0.3061,-0.3071,-0.3079,-0.3066,-0.3042,-0.3047,-0.2991,-0.2991,-0.2991,0,0,-0.3038,-0.3089,-0.3117,-0.3191,-0.3217,-0.3257,-0.3244,-0.3278,-0.3294,-0.3234,-0.3229,-0.32,-0.3151,-0.3139,-0.3125,-0.3099,-0.3089,-0.3086,-0.3093,-0.3074,-0.3047,-0.3052,-0.3057,-0.2994,-0.2994,-0.2993,0,0,-0.3061,-0.3105,-0.3156,-0.3193,-0.3248,-0.3266,-0.3279,-0.3316,-0.331,-0.3323,-0.3283,-0.3262,-0.3221,-0.3188,-0.3165,-0.3214,-0.3146,-0.3208,-0.3234,-0.3213,-0.3216,-0.3218,-0.3218,-0.3219,-0.3207,-0.3207,-0.3207,0,-0.3048,-0.3126,-0.3171,-0.3225,-0.3252,-0.3273,-0.3315,-0.3327,-0.3345,-0.3341,-0.3325,-0.3288,-0.3241,-0.3222,-0.324,-0.3228,-0.3217,-0.3187,-0.3222,-0.3224,-0.3225,-0.3223,-0.3224,-0.3211,-0.3211,-0.321,-0.321,0,-0.3108,-0.3165,-0.3196,-0.3274,-0.3305,-0.3346,-0.3379,-0.3394,-0.3391,-0.3396,-0.3385,-0.3347,-0.3315,-0.331,-0.3282,-0.3274,-0.3267,-0.324,-0.3184,-0.3234,-0.3231,-0.323,-0.3217,-0.3216,-0.3214,-0.3213,0,0,-0.3097,-0.3215,-0.3226,-0.3259,-0.3333,-0.3362,-0.3398,-0.343,-0.3441,-0.3443,-0.3443,-0.3412,-0.3388,-0.3362,-0.333,-0.3311,-0.3318,-0.3282,-0.3279,-0.3268,-0.3291,-0.3287,-0.3285,-0.3299,-0.3298,-0.3298,-0.3296,0,-0.3125,-0.322,-0.3274,-0.3341,-0.3385,-0.3418,-0.3448,-0.3473,-0.348,-0.3485,-0.345,-0.3437,-0.3409,-0.3393,-0.3373,-0.3325,-0.3315,-0.3322,-0.3254,-0.3252,-0.323,-0.3283,-0.3247,-0.3241,-0.3295,-0.3294,-0.3294,0,-0.3163,-0.3223,-0.3292,-0.3371,-0.3393,-0.3424,-0.3463,-0.3494,-0.351,-0.3515,-0.3503,-0.3482,-0.3452,-0.3421,-0.3368,-0.3377,-0.3339,-0.3308,-0.3306,-0.3265,-0.3245,-0.3194,-0.3237,-0.3229,-0.3292,-0.3292,-0.3293,0,-0.3121,-0.3231,-0.3276,-0.3306,-0.3397,-0.3415,-0.3449,-0.3487,-0.3508,-0.3521,-0.3536,-0.3507,-0.3484,-0.3437,-0.3383,-0.3374,-0.3329,-0.3303,-0.327,-0.3271,-0.3204,-0.3199,-0.321,-0.3266,-0.3266,-0.3266,-0.3266,0,-0.313,-0.3169,-0.3254,-0.3281,-0.3309,-0.3386,-0.3411,-0.3446,-0.3495,-0.3516,-0.3533,-0.3539,-0.3485,-0.3459,-0.3403,-0.3344,-0.3345,-0.328,-0.3266,-0.3236,-0.3234,-0.3193,-0.3195,-0.3266,-0.3266,-0.3266,-0.3266,0,-0.3072,-0.3148,-0.3187,-0.327,-0.3289,-0.3297,-0.3377,-0.3407,-0.3471,-0.3499,-0.3506,-0.355,-0.3524,-0.3485,-0.3412,-0.3369,-0.3275,-0.3288,-0.3272,-0.3256,-0.3211,-0.3219,-0.3165,-0.3077,-0.3249,-0.3249,-0.3249,0,-0.3053,-0.3065,-0.3129,-0.3146,-0.3178,-0.3215,-0.3251,-0.3352,-0.3392,-0.35,-0.3506,-0.3529,-0.3525,-0.3458,-0.3387,-0.3316,-0.3262,-0.3241,-0.3204,-0.3212,-0.321,-0.3185,-0.3111,-0.3161,-0.3161,-0.316,-0.3159,0,-0.2981,-0.299,-0.3017,-0.3035,-0.3072,-0.3115,-0.3177,-0.3215,-0.3341,-0.3393,-0.3466,-0.3487,-0.3482,-0.3421,-0.3355,-0.3278,-0.3197,-0.3225,-0.3222,-0.3139,-0.3118,-0.3026,-0.3182,-0.3153,-0.3154,-0.3154,-0.3155,-0.3155,-0.289,-0.2868,-0.2891,-0.2893,-0.2943,-0.2984,-0.2953,-0.3072,-0.3124,-0.3171,-0.3331,-0.334,-0.3429,-0.3337,-0.3285,-0.3201,-0.3145,-0.3117,-0.3128,-0.3103,-0.3011,-0.3172,-0.3133,-0.3134,-0.3134,-0.3134,-0.3135,0,-0.2772,-0.2756,-0.2754,-0.2751,-0.2734,-0.2813,-0.2869,-0.2806,-0.281,-0.2973,-0.3028,-0.3196,-0.3219,-0.3267,-0.3276,-0.3162,-0.3043,-0.3059,-0.3011,-0.2934,-0.3072,-0.3062,-0.3019,-0.3019,-0.3019,-0.3019,-0.3019,-0.3019,-0.2699,-0.2657,-0.2643,-0.254,-0.2527,-0.2426,-0.2411,-0.2363,-0.2405,-0.2451,-0.2591,-0.2742,-0.2939,-0.3345,-0.3314,-0.3175,-0.3039,-0.2968,-0.2907,-0.3039,-0.3045,-0.3051,-0.3042,-0.2995,-0.2995,-0.2703,-0.2701,-0.27]},{"header":{"parameterUnit":"m.s-1","parameterCategory":2,"la1":30.2991,"la2":30.254,"lo1":-89.0895,"lo2":-89.0444,"dy":0.0017,"dx":0.0017,"nx":28,"ny":28,"refTime":"2024-04-28T03:00:00:Z","depth":"0","parameterNumber":3,"parameterNumberName":"V-component_of_CURRENTS"},"data":[0,0,0,0,0,0,0,0,0,0,0,0,0,0,0,0,0,0,0,0,0,0,0,0,0,0,0,0,0,0,0,0,0,0,0,0,0,0,0,0,0,0,0,0,0,0,0,0,0,0,0,0,0,0,0,0,0,0,-0.006,-0.0059,0,0.0086,0.0088,0.009,0.016,0.016,0.016,0.016,0.0286,0.0289,0.0293,0,0,0,0,0,0,0,0,0,0,0,0,0,-0.0185,-0.0184,-0.006,-0.0058,-0.0057,0.0086,0.0088,0.009,0.016,0.016,0.016,0.0159,0.0285,0.0289,0.0293,0,0,0,0,0,0,0,0,0,0,0,0,0,-0.0093,-0.0183,-0.0061,-0.0005,0.0001,0.0085,0.0088,0.0091,0.016,0.016,0.016,0.0159,0.0283,0.0288,0.0294,0.033,0,0,0.031,0.0312,0,0,0,0,0,0,0,0,-0.0099,-0.0089,-0.0015,-0.0009,-0.0002,0.0104,0.009,0.0169,0.016,0.0101,0.016,0.0159,0.0223,0.0233,0.0263,0.0336,0.0342,0.031,0.0313,0.0315,0.0317,0,0,0,0,0,0,0,-0.0105,-0.0094,-0.0001,-0.0013,-0.0005,0.0044,0.0056,0.0106,0.0161,0.0106,0.0111,0.0126,0.0226,0.0257,0.0266,0.0343,0.031,0.0315,0.0318,0.032,0.0495,0.0497,0,0,0,0,0,0,-0.013,-0.0101,-0.0006,0.0003,-0.0053,0.0046,0.006,0.0071,0.0162,0.0175,0.0126,0.0128,0.0248,0.026,0.0271,0.0331,0.0315,0.032,0.0323,0.0494,0.0496,0.0497,0,0,0,0,0,0,-0.0133,-0.0123,-0.0012,-0.0046,-0.0029,0.0048,0.006,0.0074,0.0101,0.0177,0.019,0.0138,0.0249,0.0263,0.0328,0.0336,0.0323,0.0327,0.0492,0.0494,0.0496,0.0444,0,0,0,0,0,0,-0.0137,-0.0125,-0.0131,-0.0048,-0.0028,0.0028,0.0061,0.0077,0.011,0.0115,0.0192,0.0204,0.025,0.032,0.0333,0.0343,0.0332,0.049,0.0493,0.0496,0.0444,0.0444,0.0444,0,0,0,0,0,-0.0142,-0.0155,-0.0133,-0.0121,-0.0037,0.0028,0.0043,0.0097,0.0111,0.0121,0.0186,0.0201,0.0347,0.0325,0.0341,0.0352,0.0489,0.0492,0.0495,0.0444,0.0444,0.0444,0,0,0,0,0,0,-0.022,-0.0146,-0.0121,-0.0112,-0.0051,0.0039,0.0048,0.009,0.0151,0.0152,0.0222,0.0239,0.0297,0.0339,0.0313,0.0415,0.042,0.0427,0.0376,0.0377,0.0377,0.0351,0.0336,0,0,0,0,0,-0.0238,-0.0227,-0.0144,-0.014,-0.0113,-0.0033,-0.0004,0.0039,0.0106,0.0132,0.0192,0.026,0.0325,0.0359,0.0418,0.0473,0.0513,0.0493,0.0493,0.0493,0.0485,0.0565,0.0571,0.0508,0.0508,0.0508,0,0,-0.027,-0.0227,-0.0223,-0.0155,-0.0106,-0.0068,-0.0016,0.0024,0.0062,0.0135,0.0194,0.0256,0.034,0.0405,0.0434,0.0439,0.0534,0.0497,0.0496,0.0488,0.0569,0.0575,0.058,0.0511,0.051,0.051,0,0,-0.0322,-0.0287,-0.029,-0.0238,-0.0168,-0.0108,-0.0101,-0.0009,0.0034,0.0105,0.017,0.0243,0.0335,0.0408,0.0453,0.0493,0.0528,0.0507,0.0492,0.0569,0.0574,0.0579,0.0635,0.0645,0.0512,0.0512,0.0512,0,-0.0365,-0.035,-0.0282,-0.0261,-0.0226,-0.0132,-0.0116,-0.0049,0.0054,0.0096,0.0112,0.0278,0.034,0.0439,0.0455,0.0491,0.0531,0.0476,0.0566,0.0572,0.0578,0.0634,0.0646,0.051,0.051,0.051,0.0511,0,-0.0404,-0.0389,-0.0387,-0.0325,-0.0276,-0.025,-0.0145,-0.0093,-0.003,0.0047,0.0148,0.0253,0.035,0.0387,0.0433,0.0514,0.0526,0.0549,0.0554,0.058,0.0639,0.0652,0.0507,0.0508,0.0508,0.0509,0,0,-0.0509,-0.0432,-0.0432,-0.0413,-0.0308,-0.0274,-0.0204,-0.0108,-0.0062,0.0047,0.0117,0.0246,0.0304,0.0361,0.0437,0.0509,0.0586,0.0537,0.0542,0.0572,0.0741,0.0823,0.0845,0.0619,0.0621,0.0623,0.0763,0,-0.0562,-0.056,-0.0486,-0.0467,-0.0456,-0.0336,-0.0278,-0.0176,-0.0076,0.0018,0.0149,0.0239,0.0297,0.0341,0.0426,0.0552,0.0619,0.0545,0.0729,0.0734,0.0788,0.0864,0.0972,0.1112,0.0776,0.0778,0.078,0,-0.0623,-0.0612,-0.0616,-0.0541,-0.0522,-0.0484,-0.0373,-0.0306,-0.0141,-0.0063,0.0062,0.0171,0.0315,0.0345,0.0566,0.0513,0.0612,0.0704,0.0712,0.0814,0.0842,0.1036,0.1149,0.1385,0.0801,0.0799,0.0797,0,-0.0747,-0.0699,-0.0711,-0.0685,-0.0582,-0.0552,-0.0492,-0.0343,-0.028,-0.0115,-0.005,0.0138,0.0238,0.0394,0.0603,0.058,0.0837,0.0833,0.0999,0.1005,0.1148,0.1164,0.1496,0.0969,0.0968,0.0968,0.0967,0,-0.0833,-0.0839,-0.0775,-0.0779,-0.0781,-0.0666,-0.0629,-0.0532,-0.0388,-0.0305,-0.0114,0.0002,0.0254,0.0446,0.0601,0.0865,0.0845,0.1015,0.1062,0.1134,0.1146,0.1397,0.1466,0.0973,0.0972,0.0971,0.097,0,-0.0956,-0.0915,-0.0928,-0.0858,-0.0842,-0.0846,-0.074,-0.07,-0.0549,-0.0434,-0.0383,-0.009,0.0187,0.0444,0.0732,0.0879,0.1258,0.1186,0.1249,0.1302,0.1664,0.1723,0.2033,0.2152,0.1392,0.1395,0.1398,0,-0.1013,-0.1037,-0.1019,-0.104,-0.101,-0.0992,-0.0969,-0.0816,-0.0748,-0.0476,-0.0422,-0.0111,0.0157,0.0631,0.0967,0.1294,0.1415,0.1535,0.1519,0.1731,0.1833,0.1839,0.1916,0.1685,0.169,0.1694,0.1697,0,-0.112,-0.1118,-0.1131,-0.1189,-0.1191,-0.1174,-0.1116,-0.1077,-0.0865,-0.0709,-0.0425,-0.018,0.0351,0.0862,0.1297,0.1464,0.1733,0.1623,0.1853,0.2109,0.2131,0.2252,0.1518,0.1731,0.1728,0.1725,0.1724,0.1722,-0.1195,-0.1245,-0.1278,-0.1325,-0.134,-0.1327,-0.1293,-0.1166,-0.1019,-0.0707,-0.046,0.0011,0.0759,0.1444,0.1659,0.2171,0.2032,0.2294,0.2351,0.2338,0.2469,0.1799,0.2056,0.2054,0.2053,0.2052,0.2051,0,-0.1287,-0.1336,-0.1404,-0.1444,-0.1481,-0.1446,-0.1361,-0.1252,-0.1047,-0.0681,-0.0338,0.0583,0.1313,0.1936,0.2675,0.2913,0.2918,0.2996,0.3061,0.3103,0.2554,0.2585,0.2959,0.2959,0.2959,0.2958,0.2958,0.2958,-0.1333,-0.1433,-0.1469,-0.1559,-0.1573,-0.1544,-0.148,-0.1241,-0.0944,-0.0321,0.0247,0.068,0.1593,0.2897,0.3573,0.3581,0.3769,0.3723,0.3793,0.3455,0.3394,0.3335,0.3388,0.3924,0.3925,0.4344,0.4349,0.4352]}],[{"header":{"parameterUnit":"m.s-1","parameterCategory":2,"la1":30.2991,"la2":30.254,"lo1":-89.0895,"lo2":-89.0444,"dy":0.0017,"dx":0.0017,"nx":28,"ny":28,"refTime":"2024-04-28T03:00:00:Z","depth":"2","parameterNumber":2,"parameterNumberName":"U-component_of_CURRENTS"},"data":[0,0,0,0,0,0,0,0,0,0,0,0,0,0,0,0,0,0,0,0,0,0,0,0,0,0,0,0,0,0,0,0,0,0,0,0,0,0,0,0,0,0,0,0,0,0,0,0,0,0,0,0,0,0,0,0,0,0,-0.3148,-0.3149,0,-0.3192,-0.3192,-0.3192,-0.3141,-0.314,-0.3138,-0.3137,-0.297,-0.2967,-0.2964,0,0,0,0,0,0,0,0,0,0,0,0,0,-0.2963,-0.2966,-0.3148,-0.3149,-0.315,-0.3192,-0.3192,-0.3192,-0.3141,-0.314,-0.3138,-0.3136,-0.2971,-0.2967,-0.2963,0,0,0,0,0,0,0,0,0,0,0,0,0,-0.3023,-0.2967,-0.3148,-0.3134,-0.3134,-0.3192,-0.3192,-0.3192,-0.3142,-0.314,-0.3138,-0.3136,-0.2972,-0.2968,-0.2963,-0.2975,0,0,-0.2948,-0.2946,0,0,0,0,0,0,0,0,-0.302,-0.3029,-0.3135,-0.3135,-0.3135,-0.3164,-0.3066,-0.3111,-0.3142,-0.3133,-0.3137,-0.3135,-0.302,-0.3012,-0.3019,-0.2967,-0.296,-0.2948,-0.2945,-0.2943,-0.2942,0,0,0,0,0,0,0,-0.3016,-0.3027,-0.3159,-0.3136,-0.3136,-0.3106,-0.3113,-0.3074,-0.3079,-0.3133,-0.3131,-0.3146,-0.3018,-0.3024,-0.3014,-0.2958,-0.2948,-0.2944,-0.2941,-0.2939,-0.2913,-0.2915,0,0,0,0,0,0,-0.3028,-0.3024,-0.3158,-0.3161,-0.3077,-0.3112,-0.3119,-0.3152,-0.3084,-0.3075,-0.3148,-0.3143,-0.3033,-0.302,-0.3008,-0.2998,-0.2943,-0.2939,-0.2936,-0.2911,-0.2913,-0.2916,0,0,0,0,0,0,-0.3024,-0.3041,-0.3156,-0.3096,-0.3109,-0.3119,-0.3156,-0.3154,-0.3154,-0.3099,-0.3084,-0.3148,-0.3031,-0.3015,-0.2991,-0.2991,-0.2936,-0.2932,-0.2908,-0.2911,-0.2914,-0.299,0,0,0,0,0,0,-0.3019,-0.3039,-0.3059,-0.3098,-0.3114,-0.3189,-0.3158,-0.3157,-0.3169,-0.3164,-0.3095,-0.3078,-0.3028,-0.2999,-0.2986,-0.2984,-0.2928,-0.2905,-0.291,-0.2913,-0.2985,-0.2996,-0.3005,0,0,0,0,0,-0.3013,-0.305,-0.306,-0.3076,-0.3144,-0.319,-0.3195,-0.3189,-0.3172,-0.3178,-0.3146,-0.3079,-0.3015,-0.2997,-0.2982,-0.2978,-0.2903,-0.2908,-0.2913,-0.2981,-0.2994,-0.3005,0,0,0,0,0,0,-0.2971,-0.305,-0.3061,-0.3118,-0.3152,-0.3183,-0.3196,-0.3196,-0.3181,-0.3169,-0.3106,-0.3088,-0.3067,-0.3028,-0.301,-0.2989,-0.2949,-0.2951,-0.3005,-0.3017,-0.3026,-0.3016,-0.2925,0,0,0,0,0,-0.298,-0.3031,-0.3088,-0.3131,-0.3154,-0.3177,-0.3192,-0.3195,-0.3196,-0.3188,-0.3147,-0.3109,-0.3081,-0.3053,-0.3022,-0.3009,-0.2977,-0.3001,-0.3011,-0.3019,-0.3006,-0.2982,-0.2988,-0.2931,-0.2931,-0.2931,0,0,-0.2976,-0.3026,-0.3053,-0.3126,-0.3152,-0.3191,-0.3179,-0.3214,-0.3229,-0.317,-0.3166,-0.3138,-0.3089,-0.3078,-0.3064,-0.3038,-0.3028,-0.3026,-0.3032,-0.3014,-0.2988,-0.2993,-0.2997,-0.2935,-0.2934,-0.2934,0,0,-0.2999,-0.3042,-0.3092,-0.3128,-0.3183,-0.3201,-0.3214,-0.3251,-0.3246,-0.3258,-0.322,-0.32,-0.316,-0.3127,-0.3104,-0.3152,-0.3085,-0.3146,-0.3173,-0.3152,-0.3155,-0.3157,-0.3157,-0.3158,-0.3145,-0.3146,-0.3146,0,-0.2986,-0.3062,-0.3106,-0.3159,-0.3187,-0.3208,-0.3249,-0.3261,-0.3279,-0.3277,-0.3261,-0.3226,-0.3179,-0.316,-0.3179,-0.3167,-0.3156,-0.3127,-0.3161,-0.3163,-0.3164,-0.3162,-0.3163,-0.315,-0.3149,-0.3149,-0.3149,0,-0.3044,-0.31,-0.3131,-0.3207,-0.3238,-0.3279,-0.3312,-0.3327,-0.3326,-0.333,-0.3321,-0.3284,-0.3253,-0.3248,-0.322,-0.3213,-0.3206,-0.3179,-0.3123,-0.3174,-0.317,-0.3169,-0.3156,-0.3154,-0.3153,-0.3152,0,0,-0.3031,-0.3148,-0.316,-0.3193,-0.3265,-0.3294,-0.333,-0.3362,-0.3373,-0.3376,-0.3377,-0.3347,-0.3325,-0.3299,-0.3268,-0.3249,-0.3257,-0.3221,-0.3218,-0.3207,-0.323,-0.3224,-0.3223,-0.3238,-0.3237,-0.3237,-0.3235,0,-0.3058,-0.3152,-0.3206,-0.3272,-0.3315,-0.3349,-0.3379,-0.3404,-0.3412,-0.3418,-0.3385,-0.3373,-0.3346,-0.3331,-0.3311,-0.3264,-0.3254,-0.3261,-0.3193,-0.3191,-0.3168,-0.3221,-0.2925,-0.2898,-0.3234,-0.3234,-0.3234,0,-0.3093,-0.3153,-0.3223,-0.3302,-0.3323,-0.3354,-0.3394,-0.3424,-0.3441,-0.3448,-0.3437,-0.3417,-0.3389,-0.3358,-0.3307,-0.3315,-0.3278,-0.3247,-0.3246,-0.3203,-0.3183,-0.2897,-0.2883,-0.3232,-0.3232,-0.3232,-0.3232,0,-0.3049,-0.3158,-0.3205,-0.3235,-0.3327,-0.3346,-0.3381,-0.3419,-0.344,-0.3455,-0.3471,-0.3442,-0.3421,-0.3375,-0.3322,-0.3313,-0.3269,-0.3243,-0.3209,-0.3209,-0.2922,-0.2898,-0.3206,-0.3206,-0.3206,-0.3206,-0.3206,0,-0.3054,-0.3092,-0.3183,-0.3211,-0.3241,-0.3318,-0.3343,-0.3379,-0.3429,-0.345,-0.3468,-0.3474,-0.3422,-0.3397,-0.3341,-0.3283,-0.3284,-0.3218,-0.3205,-0.2949,-0.2928,-0.3178,-0.3174,-0.3206,-0.3206,-0.3206,-0.3206,0,-0.2991,-0.307,-0.3112,-0.32,-0.322,-0.323,-0.3311,-0.3341,-0.3406,-0.3434,-0.3442,-0.3486,-0.3461,-0.3423,-0.3351,-0.3307,-0.3249,-0.3226,-0.2951,-0.2907,-0.3201,-0.3202,-0.3186,-0.3186,-0.3186,-0.3186,-0.3185,0,-0.2968,-0.2983,-0.3057,-0.3077,-0.3111,-0.315,-0.3187,-0.3288,-0.3328,-0.3435,-0.3441,-0.3465,-0.3448,-0.3381,-0.3249,-0.316,-0.3245,-0.2908,-0.2835,-0.3209,-0.3197,-0.3199,-0.32,-0.2487,-0.2482,-0.2477,-0.2473,0,-0.2891,-0.2908,-0.2941,-0.2968,-0.3007,-0.3051,-0.3114,-0.3152,-0.3277,-0.3313,-0.3385,-0.3393,-0.3335,-0.3107,-0.3015,-0.2918,-0.29,-0.2815,-0.3226,-0.2572,-0.2558,-0.2545,-0.2567,-0.243,-0.2434,-0.2438,-0.244,-0.2442,-0.2801,-0.2784,-0.2819,-0.2829,-0.288,-0.2921,-0.2892,-0.294,-0.2968,-0.2906,-0.3145,-0.3002,-0.301,-0.2667,-0.2593,-0.2496,-0.2675,-0.2555,-0.2564,-0.258,-0.2533,-0.2523,-0.238,-0.2384,-0.2387,-0.239,-0.2393,0,-0.2642,-0.2679,-0.2683,-0.2689,-0.2631,-0.2754,-0.2809,-0.2653,-0.2548,-0.2551,-0.2513,-0.2278,-0.2195,-0.2214,-0.1999,-0.2041,-0.195,-0.1987,-0.1843,-0.1886,-0.1924,-0.184,-0.1505,-0.1503,-0.1501,-0.1499,0,0,-0.2563,-0.2509,-0.2499,-0.2389,-0.2417,-0.2242,-0.2225,-0.2033,-0.1912,-0.1676,-0.1596,-0.1779,-0.2006,-0.1663,-0.1674,-0.1548,-0.1664,-0.1463,-0.2157,-0.2013,-0.2047,-0.2228,-0.2146,0,0,0,0,0]},{"header":{"parameterUnit":"m.s-1","parameterCategory":2,"la1":30.2991,"la2":30.254,"lo1":-89.0895,"lo2":-89.0444,"dy":0.0017,"dx":0.0017,"nx":28,"ny":28,"refTime":"2024-04-28T03:00:00:Z","depth":"2","parameterNumber":3,"parameterNumberName":"V-component_of_CURRENTS"},"data":[0,0,0,0,0,0,0,0,0,0,0,0,0,0,0,0,0,0,0,0,0,0,0,0,0,0,0,0,0,0,0,0,0,0,0,0,0,0,0,0,0,0,0,0,0,0,0,0,0,0,0,0,0,0,0,0,0,0,-0.0087,-0.0086,0,0.0058,0.006,0.0061,0.0133,0.0132,0.0132,0.0132,0.0259,0.0262,0.0265,0,0,0,0,0,0,0,0,0,0,0,0,0,-0.0209,-0.0208,-0.0087,-0.0085,-0.0084,0.0058,0.006,0.0062,0.0133,0.0132,0.0132,0.0132,0.0258,0.0262,0.0266,0,0,0,0,0,0,0,0,0,0,0,0,0,-0.0119,-0.0208,-0.0087,-0.0032,-0.0026,0.0057,0.006,0.0062,0.0133,0.0132,0.0132,0.0132,0.0256,0.0261,0.0266,0.0301,0,0,0.0282,0.0284,0,0,0,0,0,0,0,0,-0.0124,-0.0114,-0.0042,-0.0036,-0.0029,0.0076,0.0063,0.0141,0.0133,0.0074,0.0132,0.0132,0.0195,0.0206,0.0235,0.0307,0.0313,0.0283,0.0286,0.0288,0.029,0,0,0,0,0,0,0,-0.0131,-0.012,-0.0029,-0.004,-0.0032,0.0017,0.0029,0.0079,0.0134,0.0079,0.0084,0.0099,0.0199,0.023,0.0238,0.0315,0.0283,0.0287,0.029,0.0292,0.0465,0.0467,0,0,0,0,0,0,-0.0155,-0.0126,-0.0033,-0.0024,-0.0079,0.0019,0.0033,0.0043,0.0134,0.0148,0.0099,0.0101,0.0221,0.0232,0.0243,0.0303,0.0288,0.0293,0.0296,0.0464,0.0465,0.0467,0,0,0,0,0,0,-0.0158,-0.0148,-0.0039,-0.0072,-0.0055,0.0021,0.0033,0.0046,0.0074,0.0149,0.0162,0.0111,0.0221,0.0236,0.03,0.0307,0.0295,0.03,0.0462,0.0464,0.0466,0.0414,0,0,0,0,0,0,-0.0163,-0.0151,-0.0157,-0.0074,-0.0054,-0.0,0.0033,0.0049,0.0083,0.0088,0.0164,0.0176,0.0222,0.0292,0.0305,0.0314,0.0304,0.046,0.0463,0.0466,0.0413,0.0414,0.0414,0,0,0,0,0,-0.0168,-0.0181,-0.0158,-0.0147,-0.0064,-0.0001,0.0014,0.0069,0.0083,0.0093,0.0158,0.0174,0.0319,0.0297,0.0312,0.0323,0.0459,0.0462,0.0465,0.0413,0.0414,0.0414,0,0,0,0,0,0,-0.0244,-0.0172,-0.0146,-0.0139,-0.0078,0.0011,0.0019,0.0062,0.0122,0.0124,0.0194,0.0211,0.0268,0.031,0.0285,0.0385,0.0391,0.0397,0.0346,0.0347,0.0347,0.0322,0.0308,0,0,0,0,0,-0.0263,-0.0252,-0.017,-0.0167,-0.0141,-0.0061,-0.0032,0.001,0.0077,0.0103,0.0163,0.0231,0.0296,0.033,0.0388,0.0442,0.0483,0.0462,0.0462,0.0462,0.0454,0.0533,0.0539,0.0478,0.0478,0.0478,0,0,-0.0295,-0.0253,-0.0249,-0.0182,-0.0134,-0.0096,-0.0044,-0.0005,0.0033,0.0107,0.0165,0.0227,0.031,0.0374,0.0404,0.0409,0.0502,0.0466,0.0465,0.0457,0.0537,0.0543,0.0548,0.048,0.048,0.0479,0,0,-0.0348,-0.0313,-0.0317,-0.0266,-0.0196,-0.0137,-0.0129,-0.0038,0.0005,0.0075,0.014,0.0213,0.0305,0.0376,0.0422,0.0461,0.0496,0.0474,0.0459,0.0536,0.0541,0.0545,0.0601,0.0611,0.0479,0.0479,0.0479,0,-0.039,-0.0376,-0.0309,-0.0289,-0.0254,-0.016,-0.0145,-0.0079,0.0023,0.0065,0.0082,0.0247,0.0309,0.0407,0.0423,0.0458,0.0498,0.0444,0.0533,0.0539,0.0544,0.0601,0.0612,0.0477,0.0477,0.0478,0.0478,0,-0.0431,-0.0416,-0.0414,-0.0353,-0.0305,-0.028,-0.0176,-0.0124,-0.0061,0.0015,0.0117,0.022,0.0318,0.0354,0.04,0.048,0.0492,0.0516,0.0521,0.0547,0.0605,0.0618,0.0474,0.0475,0.0476,0.0476,0,0,-0.0535,-0.046,-0.046,-0.0442,-0.0337,-0.0304,-0.0235,-0.014,-0.0093,0.0014,0.0084,0.0213,0.0271,0.0328,0.0403,0.0475,0.0552,0.0503,0.0509,0.0538,0.0706,0.0785,0.0807,0.0585,0.0587,0.0589,0.0728,0,-0.0589,-0.0588,-0.0515,-0.0496,-0.0486,-0.0367,-0.031,-0.0208,-0.0108,-0.0015,0.0116,0.0205,0.0263,0.0308,0.0392,0.0518,0.0585,0.0511,0.0694,0.0699,0.075,0.0825,0.0649,0.0765,0.0741,0.0743,0.0745,0,-0.0651,-0.064,-0.0645,-0.057,-0.0551,-0.0514,-0.0404,-0.0337,-0.0173,-0.0095,0.0029,0.0139,0.0281,0.0311,0.0531,0.0479,0.0578,0.0669,0.0677,0.0776,0.0804,0.074,0.079,0.0767,0.0766,0.0764,0.0762,0,-0.0774,-0.0727,-0.0739,-0.0713,-0.0612,-0.0582,-0.0521,-0.0374,-0.0311,-0.0147,-0.0081,0.0105,0.0206,0.036,0.0569,0.0546,0.0801,0.0798,0.0961,0.0966,0.0868,0.0863,0.0933,0.0933,0.0932,0.0932,0.0932,0,-0.086,-0.0866,-0.0802,-0.0806,-0.0808,-0.0694,-0.0656,-0.056,-0.0417,-0.0335,-0.0144,-0.003,0.0221,0.0413,0.0567,0.0827,0.0809,0.0975,0.1022,0.0848,0.084,0.0878,0.087,0.0937,0.0936,0.0935,0.0934,0,-0.0982,-0.0942,-0.0954,-0.0884,-0.0868,-0.0872,-0.0767,-0.0726,-0.0576,-0.0462,-0.0412,-0.0121,0.0154,0.041,0.0696,0.0841,0.1063,0.1145,0.0925,0.0946,0.1164,0.1152,0.1339,0.1343,0.1347,0.135,0.1352,0,-0.1039,-0.1063,-0.1043,-0.1064,-0.1034,-0.1016,-0.0993,-0.0841,-0.0774,-0.0504,-0.0451,-0.0142,0.0112,0.0582,0.0839,0.1142,0.1175,0.1193,0.1139,0.1187,0.1213,0.1195,0.1178,0.0971,0.097,0.097,0.0969,0,-0.1145,-0.1143,-0.1154,-0.1212,-0.1213,-0.1196,-0.1139,-0.11,-0.0891,-0.0743,-0.0463,-0.0232,0.0223,0.0547,0.0948,0.1089,0.1138,0.1197,0.1311,0.0918,0.0859,0.0879,0.087,0.0964,0.0964,0.0965,0.0965,0.0965,-0.1219,-0.1268,-0.1299,-0.1345,-0.136,-0.1347,-0.1314,-0.1219,-0.1085,-0.0843,-0.0573,-0.0242,0.0133,0.065,0.0933,0.1152,0.1182,0.1211,0.1204,0.12,0.1156,0.1109,0.125,0.1252,0.1254,0.1255,0.1257,0,-0.1308,-0.1357,-0.1424,-0.1462,-0.1499,-0.1465,-0.1381,-0.132,-0.1167,-0.0964,-0.0692,-0.0285,0.0112,0.0506,0.0824,0.1102,0.1009,0.1152,0.0957,0.0959,0.0963,0.09,0.093,0.0931,0.0931,0.0932,0,0,-0.1352,-0.1449,-0.1485,-0.1574,-0.159,-0.1585,-0.1523,-0.1405,-0.1261,-0.1047,-0.0824,-0.05,0.0043,0.0234,0.0555,0.0736,0.076,0.0728,0.0941,0.0664,0.0664,0.0936,0.0838,0,0,0,0,0]}],[{"header":{"parameterUnit":"m.s-1","parameterCategory":2,"la1":30.2991,"la2":30.254,"lo1":-89.0895,"lo2":-89.0444,"dy":0.0017,"dx":0.0017,"nx":28,"ny":28,"refTime":"2024-04-28T03:00:00:Z","depth":"4","parameterNumber":2,"parameterNumberName":"U-component_of_CURRENTS"},"data":[0,0,0,0,0,0,0,0,0,0,0,0,0,0,0,0,0,0,0,0,0,0,0,0,0,0,0,0,0,0,0,0,0,0,0,0,0,0,0,0,0,0,0,0,0,0,0,0,0,0,0,0,0,0,0,0,0,0,-0.1605,-0.1606,0,-0.1664,-0.1665,-0.1665,-0.168,-0.168,-0.168,-0.168,-0.1662,-0.1662,-0.1661,0,0,0,0,0,0,0,0,0,0,0,0,0,-0.1497,-0.1498,-0.1604,-0.1606,-0.1607,-0.1664,-0.1665,-0.1665,-0.168,-0.168,-0.168,-0.168,-0.1662,-0.1662,-0.1661,0,0,0,0,0,0,0,0,0,0,0,0,0,-0.1545,-0.1499,-0.1604,-0.1624,-0.1627,-0.1664,-0.1665,-0.1665,-0.168,-0.168,-0.168,-0.168,-0.1663,-0.1662,-0.1661,-0.1657,0,0,-0.1659,-0.1659,0,0,0,0,0,0,0,0,-0.1542,-0.1548,-0.162,-0.1623,-0.1626,-0.1669,-0.162,-0.166,-0.168,-0.1656,-0.168,-0.168,-0.166,-0.1659,-0.1666,-0.1656,-0.1655,-0.1659,-0.1659,-0.1658,-0.1658,0,0,0,0,0,0,0,-0.1539,-0.1546,-0.1624,-0.1622,-0.1625,-0.1628,-0.1635,-0.1628,-0.1652,-0.1658,-0.166,-0.1673,-0.166,-0.1667,-0.1665,-0.1655,-0.1659,-0.1658,-0.1658,-0.1658,-0.1751,-0.1754,0,0,0,0,0,0,-0.154,-0.1543,-0.1622,-0.1626,-0.1588,-0.1631,-0.1638,-0.1652,-0.1654,-0.1657,-0.1673,-0.1674,-0.1668,-0.1666,-0.1665,-0.1752,-0.1658,-0.1658,-0.1657,-0.1748,-0.1751,-0.1755,0,0,0,0,0,0,-0.1538,-0.1547,-0.162,-0.1589,-0.1599,-0.1633,-0.1648,-0.1653,-0.169,-0.1668,-0.1668,-0.1709,-0.1668,-0.1666,-0.1707,-0.1747,-0.1657,-0.1657,-0.1745,-0.1749,-0.1753,-0.1866,0,0,0,0,0,0,-0.1534,-0.1545,-0.1567,-0.1589,-0.1601,-0.1664,-0.1649,-0.1654,-0.1698,-0.17,-0.1698,-0.1694,-0.1668,-0.1709,-0.1706,-0.1745,-0.1656,-0.1741,-0.1747,-0.1752,-0.1858,-0.1873,-0.1886,0,0,0,0,0,-0.153,-0.1552,-0.1567,-0.1578,-0.1626,-0.1665,-0.1672,-0.1692,-0.17,-0.1724,-0.174,-0.1696,-0.1741,-0.1711,-0.1707,-0.1746,-0.1738,-0.1745,-0.1751,-0.1852,-0.187,-0.1886,0,0,0,0,0,0,-0.1514,-0.1557,-0.1574,-0.1608,-0.1648,-0.167,-0.1697,-0.1715,-0.1747,-0.1757,-0.1732,-0.1731,-0.1779,-0.1757,-0.1724,-0.1793,-0.1733,-0.1739,-0.181,-0.1827,-0.1841,-0.1825,-0.1655,0,0,0,0,0,-0.1523,-0.1553,-0.1595,-0.1626,-0.1649,-0.1682,-0.1706,-0.1727,-0.1754,-0.177,-0.1777,-0.1787,-0.1799,-0.181,-0.1812,-0.1851,-0.1818,-0.1876,-0.1891,-0.1902,-0.1891,-0.1888,-0.19,-0.1776,-0.1776,-0.1776,0,0,-0.1524,-0.1555,-0.1571,-0.1627,-0.1657,-0.1702,-0.1696,-0.1748,-0.1793,-0.1761,-0.1829,-0.1834,-0.1822,-0.1869,-0.1888,-0.1858,-0.1929,-0.1911,-0.1921,-0.1902,-0.1896,-0.1907,-0.1918,-0.1781,-0.178,-0.1779,0,0,-0.1537,-0.1575,-0.1605,-0.1647,-0.1711,-0.1736,-0.1761,-0.1814,-0.1845,-0.1912,-0.1902,-0.1937,-0.1965,-0.1964,-0.1964,-0.2057,-0.2,-0.207,-0.2128,-0.2127,-0.2136,-0.2144,-0.2144,-0.215,-0.208,-0.208,-0.208,0,-0.1539,-0.1588,-0.1621,-0.1669,-0.1713,-0.1757,-0.181,-0.1849,-0.1913,-0.1945,-0.195,-0.2012,-0.2004,-0.2045,-0.2086,-0.2084,-0.2078,-0.2062,-0.2142,-0.2149,-0.2154,-0.2152,-0.2158,-0.2086,-0.2085,-0.2085,-0.2084,0,-0.1568,-0.1628,-0.1654,-0.173,-0.1781,-0.1836,-0.1899,-0.1959,-0.2009,-0.2043,-0.2115,-0.2122,-0.2151,-0.2169,-0.2156,-0.2205,-0.2187,-0.2157,-0.2092,-0.2173,-0.2167,-0.2171,-0.2095,-0.2093,-0.2091,-0.2089,0,0,-0.1509,-0.1649,-0.1659,-0.1722,-0.1825,-0.1867,-0.1956,-0.2037,-0.2094,-0.2159,-0.222,-0.2263,-0.227,-0.2271,-0.2266,-0.2274,-0.2322,-0.2246,-0.2243,-0.2232,-0.2332,-0.2202,-0.2193,-0.2312,-0.2313,-0.2314,-0.2321,0,-0.1524,-0.1631,-0.1696,-0.1806,-0.1868,-0.1953,-0.2029,-0.2111,-0.2177,-0.2247,-0.227,-0.2321,-0.2308,-0.2334,-0.2344,-0.2321,-0.2334,-0.2323,-0.2265,-0.2263,-0.2125,-0.2192,-0.2316,-0.2323,-0.2324,-0.2324,-0.2325,0,-0.1513,-0.16,-0.1711,-0.1865,-0.1899,-0.1974,-0.2105,-0.218,-0.2277,-0.2328,-0.2383,-0.2398,-0.2433,-0.2404,-0.2406,-0.2406,-0.2382,-0.2358,-0.2357,-0.2188,-0.2138,-0.2219,-0.233,-0.233,-0.2329,-0.2329,-0.2329,0,-0.1439,-0.16,-0.1697,-0.175,-0.1925,-0.1998,-0.2088,-0.2205,-0.227,-0.2375,-0.2422,-0.2465,-0.249,-0.2471,-0.2439,-0.2433,-0.242,-0.2397,-0.2258,-0.2249,-0.2312,-0.2303,-0.2391,-0.2391,-0.2391,-0.2391,-0.2391,0,-0.1405,-0.1479,-0.1682,-0.1735,-0.185,-0.1982,-0.2094,-0.2187,-0.2309,-0.2368,-0.2454,-0.2483,-0.2509,-0.2505,-0.2464,-0.2368,-0.2441,-0.2266,-0.2238,-0.2365,-0.2363,-0.2315,-0.2306,-0.2391,-0.2391,-0.2391,-0.2391,0,-0.1283,-0.142,-0.1544,-0.1756,-0.1818,-0.1897,-0.2085,-0.2158,-0.2293,-0.2369,-0.2403,-0.2506,-0.2499,-0.25,-0.2467,-0.2384,-0.2312,-0.2261,-0.241,-0.2391,-0.214,-0.2137,-0.2103,-0.2099,-0.2095,-0.2092,-0.2089,0,-0.1218,-0.1279,-0.1522,-0.1596,-0.1696,-0.1837,-0.1929,-0.2114,-0.2181,-0.235,-0.2362,-0.2429,-0.2463,-0.2318,-0.2338,-0.2256,-0.2222,-0.2188,-0.215,-0.2132,-0.2109,-0.2113,-0.2116,-0.2083,-0.2082,-0.208,-0.2079,0,-0.1092,-0.1204,-0.1316,-0.1476,-0.1601,-0.1716,-0.1859,-0.1897,-0.209,-0.2236,-0.2257,-0.2255,-0.225,-0.2216,-0.2176,-0.2113,-0.2209,-0.2147,-0.2154,-0.2117,-0.2106,-0.2088,-0.2096,-0.2066,-0.2068,-0.2069,-0.207,0,-0.0988,-0.104,-0.1207,-0.133,-0.1473,-0.1549,-0.1657,-0.1755,-0.1848,-0.2053,-0.205,-0.2125,-0.2225,-0.2142,-0.2096,-0.2034,-0.1994,-0.1925,-0.1943,-0.1959,-0.1904,-0.1869,-0.1729,0,0,0,0,0,-0.0869,-0.0926,-0.1042,-0.1181,-0.1316,-0.1388,-0.1585,-0.1699,-0.1891,-0.1857,-0.1952,-0.194,-0.1912,-0.1955,-0.1851,-0.2004,-0.1983,-0.1876,-0.191,-0.199,-0.2006,-0.1953,0,0,0,0,0,0,-0.0808,-0.0893,-0.0984,-0.1018,-0.1065,-0.1189,-0.1304,-0.1449,-0.1453,-0.165,-0.1641,-0.1794,-0.1781,-0.1901,-0.1786,-0.1798,-0.1779,-0.1938,-0.1933,-0.1982,-0.1996,-0.2008,-0.1959,0,0,0,0,0]},{"header":{"parameterUnit":"m.s-1","parameterCategory":2,"la1":30.2991,"la2":30.254,"lo1":-89.0895,"lo2":-89.0444,"dy":0.0017,"dx":0.0017,"nx":28,"ny":28,"refTime":"2024-04-28T03:00:00:Z","depth":"4","parameterNumber":3,"parameterNumberName":"V-component_of_CURRENTS"},"data":[0,0,0,0,0,0,0,0,0,0,0,0,0,0,0,0,0,0,0,0,0,0,0,0,0,0,0,0,0,0,0,0,0,0,0,0,0,0,0,0,0,0,0,0,0,0,0,0,0,0,0,0,0,0,0,0,0,0,-0.0271,-0.027,0,-0.0192,-0.0191,-0.019,-0.0129,-0.0129,-0.0129,-0.0128,-0.0032,-0.0029,-0.0027,0,0,0,0,0,0,0,0,0,0,0,0,0,-0.0309,-0.0309,-0.0271,-0.027,-0.0269,-0.0192,-0.019,-0.0189,-0.013,-0.0129,-0.0129,-0.0128,-0.0032,-0.003,-0.0027,0,0,0,0,0,0,0,0,0,0,0,0,0,-0.0266,-0.0309,-0.0271,-0.0231,-0.0227,-0.0192,-0.019,-0.0189,-0.013,-0.0129,-0.0128,-0.0128,-0.0033,-0.003,-0.0027,-0.0019,0,0,-0.0017,-0.0015,0,0,0,0,0,0,0,0,-0.0269,-0.0265,-0.0238,-0.0234,-0.0229,-0.0171,-0.0168,-0.0132,-0.013,-0.0165,-0.0128,-0.0127,-0.0078,-0.0071,-0.0056,-0.0015,-0.001,-0.0016,-0.0014,-0.0013,-0.0012,0,0,0,0,0,0,0,-0.0272,-0.0268,-0.0238,-0.0237,-0.0232,-0.0196,-0.019,-0.0161,-0.0125,-0.0162,-0.0158,-0.0151,-0.0075,-0.0059,-0.0053,-0.0009,-0.0016,-0.0014,-0.0012,-0.001,0.0094,0.0095,0,0,0,0,0,0,-0.0289,-0.0271,-0.0241,-0.0236,-0.0249,-0.0196,-0.0189,-0.0189,-0.0125,-0.0115,-0.0152,-0.0149,-0.0065,-0.0057,-0.0049,-0.0009,-0.0013,-0.001,-0.0008,0.0093,0.0094,0.0095,0,0,0,0,0,0,-0.029,-0.0287,-0.0244,-0.0252,-0.0244,-0.0197,-0.0197,-0.0188,-0.0172,-0.0118,-0.0107,-0.0145,-0.0064,-0.0054,-0.0011,-0.0006,-0.0008,-0.0006,0.0092,0.0094,0.0095,0.0053,0,0,0,0,0,0,-0.0292,-0.0288,-0.03,-0.0254,-0.0245,-0.0232,-0.0198,-0.0187,-0.0169,-0.0164,-0.0109,-0.0099,-0.0063,-0.0016,-0.0008,-0.0002,-0.0003,0.0091,0.0093,0.0094,0.0054,0.0053,0.0052,0,0,0,0,0,-0.0293,-0.0317,-0.0301,-0.0298,-0.0261,-0.0233,-0.0225,-0.0187,-0.017,-0.0169,-0.0118,-0.0101,-0.0001,-0.0013,-0.0004,0.0004,0.0091,0.0092,0.0094,0.0054,0.0053,0.0052,0,0,0,0,0,0,-0.0344,-0.0312,-0.0293,-0.0308,-0.0275,-0.0223,-0.0226,-0.0194,-0.0154,-0.0149,-0.0093,-0.008,-0.0041,-0.0011,-0.0026,0.0041,0.0048,0.0052,0.0015,0.0014,0.0014,0.0005,-0.0,0,0,0,0,0,-0.0361,-0.037,-0.0324,-0.0338,-0.0325,-0.0276,-0.0262,-0.0232,-0.0189,-0.0171,-0.0125,-0.0074,-0.0026,-0.0001,0.0038,0.0071,0.0108,0.0085,0.0084,0.0083,0.0085,0.0153,0.0159,0.0101,0.0101,0.0101,0,0,-0.0388,-0.037,-0.0377,-0.0349,-0.0323,-0.0309,-0.0266,-0.0251,-0.0229,-0.0168,-0.013,-0.0081,-0.0019,0.0024,0.0044,0.005,0.0118,0.0085,0.0084,0.0086,0.0156,0.0162,0.0166,0.0102,0.0102,0.0102,0,0,-0.044,-0.0427,-0.0447,-0.042,-0.0384,-0.0347,-0.0345,-0.029,-0.0258,-0.0215,-0.0158,-0.01,-0.0041,0.0019,0.0054,0.0074,0.0108,0.0081,0.0074,0.0141,0.0146,0.0151,0.0193,0.0202,0.0085,0.0085,0.0085,0,-0.0473,-0.0483,-0.0448,-0.0448,-0.0429,-0.0367,-0.0366,-0.0325,-0.0259,-0.0224,-0.0212,-0.0086,-0.0039,0.004,0.0052,0.0071,0.0105,0.0068,0.0139,0.0144,0.015,0.0193,0.0204,0.0083,0.0083,0.0083,0.0083,0,-0.0526,-0.0528,-0.0538,-0.0513,-0.0488,-0.0481,-0.0413,-0.038,-0.0332,-0.0275,-0.0194,-0.0115,-0.0036,-0.001,0.0027,0.0097,0.0106,0.0124,0.0135,0.0153,0.0197,0.0209,0.008,0.0081,0.0081,0.0082,0,0,-0.0607,-0.0581,-0.0584,-0.0573,-0.0517,-0.0501,-0.0461,-0.0395,-0.0358,-0.0282,-0.0222,-0.0124,-0.007,-0.0025,0.0037,0.01,0.0168,0.0125,0.0129,0.0156,0.0299,0.0259,0.0268,0.0196,0.0198,0.02,0.0308,0,-0.0654,-0.0676,-0.0639,-0.0638,-0.0636,-0.0558,-0.0524,-0.0452,-0.0377,-0.0304,-0.0197,-0.0123,-0.0078,-0.0035,0.0036,0.0142,0.0199,0.0136,0.0287,0.0291,0.0245,0.0281,0.0207,0.0317,0.032,0.0322,0.0323,0,-0.0709,-0.0713,-0.0733,-0.0687,-0.0678,-0.0664,-0.0582,-0.0541,-0.0418,-0.0356,-0.0254,-0.0164,-0.0043,-0.002,0.0164,0.012,0.0201,0.0275,0.0282,0.0268,0.0273,0.0301,0.0345,0.0343,0.0342,0.034,0.0339,0,-0.0777,-0.0768,-0.0787,-0.0774,-0.0721,-0.0705,-0.0668,-0.0563,-0.0518,-0.0386,-0.0334,-0.0178,-0.0095,0.0035,0.0195,0.0184,0.0385,0.0389,0.0427,0.0425,0.0445,0.0438,0.0505,0.0505,0.0504,0.0504,0.0504,0,-0.0826,-0.084,-0.0826,-0.0833,-0.0843,-0.0775,-0.0752,-0.0684,-0.0584,-0.0528,-0.0374,-0.029,-0.0076,0.0071,0.0196,0.035,0.0389,0.0433,0.0457,0.0423,0.0414,0.0452,0.0445,0.0508,0.0507,0.0507,0.0506,0,-0.0883,-0.0881,-0.0902,-0.0877,-0.0878,-0.0882,-0.0831,-0.0803,-0.07,-0.0622,-0.0581,-0.0359,-0.0164,0.0036,0.0268,0.0345,0.0498,0.0537,0.0479,0.0498,0.0489,0.0478,0.0588,0.0587,0.0587,0.0587,0.0587,0,-0.0909,-0.0931,-0.0954,-0.098,-0.0975,-0.0976,-0.0974,-0.0881,-0.0837,-0.0663,-0.0624,-0.0408,-0.0255,0.0048,0.0251,0.0487,0.0508,0.0574,0.0538,0.0488,0.0502,0.0491,0.0481,0.0586,0.0586,0.0586,0.0586,0,-0.0948,-0.0968,-0.0984,-0.1054,-0.1077,-0.1087,-0.1068,-0.1041,-0.0917,-0.0837,-0.0645,-0.0448,-0.0225,0.0033,0.0224,0.0389,0.0529,0.0572,0.0573,0.0539,0.0488,0.0499,0.0489,0.0585,0.0585,0.0585,0.0585,0,-0.0971,-0.1002,-0.1045,-0.1093,-0.1147,-0.1163,-0.1146,-0.1067,-0.1003,-0.0802,-0.0744,-0.0471,-0.0292,-0.0018,0.0159,0.0322,0.0348,0.0373,0.0385,0.0389,0.0294,0.0198,0.0235,0,0,0,0,0,-0.0978,-0.1016,-0.1077,-0.1123,-0.1185,-0.121,-0.1187,-0.1146,-0.1036,-0.0923,-0.0825,-0.0613,-0.0294,-0.0124,0.0028,0.0125,0.0355,0.0304,0.0383,0.0579,0.058,0.05,0,0,0,0,0,0,-0.0978,-0.1043,-0.1075,-0.1147,-0.1188,-0.1235,-0.1224,-0.1154,-0.1062,-0.0933,-0.0753,-0.0621,-0.0304,-0.0395,0.0016,0.0074,0.0134,0.0473,0.0475,0.0579,0.058,0.0581,0.0498,0,0,0,0,0]}]]